MysteryTwister C3
NUMBER OF ACTIVE MEMBERS:

8011
Follow us: Facebook Twitter
 



Level I Challenges (75)

Page 1 of the challenges in Level I, ordered by date posted (the most recent appear first).

Letter from the Alleged Countess Julie von Ortenburg

[schroedel-01] - 140 users already solved this challenge, 19 are working on it.
 
 
 

In 1806, the young countess Julie finds a dress with an old enciphered letter in a pouch. It reveals a secret of one of Julie's ancestors. Can you break the cipher?

The codeword for this challenge is the last word of the letter (all uppercase).
Read more...

Click here to get to the corresponding forum topic to share your opinion.
Click here to download the challenge.

Author: This email address is being protected from spambots. You need JavaScript enabled to view it.
Published on: 2010-10-14 13:30
Maximum number of attempts for this challenge: 15

All successful users of this challenge

Rank User (#140) Achieved points (Global score) y-m-d - h:m:s

Nobody (nobody) 200 (40618) 2010-10-14 13:35:35
Simon Jakob (simon.jakob) 200 (18714) 2010-10-15 01:31:38
Roadrunner (rr) 133 (12702) 2010-10-17 01:04:32
Jan Martin Keil (JMK41) 133 (133) 2010-10-17 03:35:52
#5 Claude Laveaux (claude.laveaux) 125 (14504) 2010-10-17 15:49:53
#6 Ralf Stephan (rwst) 125 (22735) 2010-10-17 20:44:09
#7 Thomas Gonda (TomG) 125 (33741) 2010-10-18 13:10:31
#8 Onkel Tom (Borgland) 120 (240) 2010-10-18 19:14:00
#9 ./. (matudo) 120 (373) 2010-10-19 00:06:38
#10 Jascha Koch (yosh) 117 (2201) 2010-10-19 18:02:05
#11 H. Hamm (EKI) 117 (242) 2010-10-19 23:16:50
#12 Udi Taren (uditaren) 117 (351) 2010-10-19 23:59:41
#13 Sebastian Steinmann (teodoc) 117 (5594) 2010-10-20 00:05:34
#14 Martin Schubert (scoob) 117 (351) 2010-10-20 12:47:40
#15 Grinse Katze (Grinsekatze) 114 (964) 2010-10-20 20:07:29
#16 Arnold Sendler (Tschighor) 113 (1105) 2010-10-21 20:17:03
#17 Anibal Kürekci (ak187) 111 (967) 2010-10-22 15:31:06
#18 Dirk Werner (hudray) 108 (933) 2010-10-26 10:29:04
#19 Peter Hamm (ptha) 108 (241) 2010-10-26 17:03:56
#20 Armin Krauss (argh) 107 (152721) 2010-10-27 23:26:54
#21 Zaproth Beeblebrox (chmhnk) 106 (356) 2010-10-31 18:23:56
#22 Gary Hawk (Highlander) 105 (631) 2010-11-02 15:26:53
#23 Bernd Freise (Xanhem) 105 (1154) 2010-11-03 18:40:37
#24 Philipp Waker (Casparov) 105 (225) 2010-11-04 11:35:29
#25 Carsten Baum (crashti) 104 (1135) 2010-11-08 08:50:08
#26 Ulrich Armbrüster (uarmbruester) 104 (7987) 2010-11-10 15:02:00
#27 Hans Schuell (hschuell) 103 (2194) 2010-11-12 00:26:18
#28 David Penack (Qvist) 103 (348) 2010-11-13 20:43:48
#29 Nils Achim Lacke (Babbage) 103 (618) 2010-11-14 22:06:46
#30 Max Mustermann (MustermM) 101 (6661) 2010-12-20 14:07:48
#31 Roland Röder (roro) 101 (307) 2010-12-27 15:20:41
#32 Hans Rudolf (mutabor) 101 (3015) 2011-01-04 16:24:58
#33 Wolfgang Weisser (wowmyst) 101 (33108) 2011-01-06 05:13:23
#34 Sebastian (seb) 101 (709) 2011-01-15 19:50:04
#35 David (aki321) 101 (27482) 2011-01-25 16:24:17
#36 j.h. (haegarq) 101 (11696) 2011-04-14 10:11:58
#37 Wombat (Wombat) 101 (5822) 2011-04-24 12:52:18
#38 Egon Hamburger (Seehase) 101 (3445) 2011-04-28 14:18:58
#39 Muendo (muendo) 100 (3501) 2011-05-09 08:12:30
#40 mad maxx (madmaxx) 100 (300) 2011-05-12 00:45:10
#41 Peter Mustermann (Gummiboot) 100 (60285) 2011-07-16 15:39:36
#42 Seth Kintigh (DarkFibre) 100 (79471) 2011-07-18 03:08:27
#43 Stefan Haas (stef_the_chef) 100 (4329) 2011-07-23 20:17:57
#44 Daniel Fretwell (fretty) 100 (30107) 2011-07-31 15:36:16
#45 dbuq (dbuq) 100 (22762) 2011-08-14 14:15:12
#46 Nicolas Golubovic (qll) 100 (14919) 2011-08-20 22:48:40
#47 Holti (Holti) 100 (6035) 2011-09-07 21:08:54
#48 Viktor (Veselovský) 100 (113116) 2011-09-11 22:46:41
#49 h3po (h3po) 100 (20433) 2011-09-13 23:14:40
#50 J. M. (jomandi) 100 (113270) 2011-09-20 22:24:36
#51 Bart den Hartog (Bart13) 100 (116412) 2011-11-02 01:56:04
#52 Tom Tox (tox) 100 (11752) 2012-01-20 17:14:38
#53 Michael Gürtler (michaelg) 100 (4128) 2012-01-26 14:40:12
#54 Benne (post_ex0dus) 100 (601) 2012-03-03 23:30:09
#55 Kurt Gebauer (Yokozuna) 100 (120839) 2012-03-06 14:48:56
#56 Felix Mohr (winterwolf) 100 (2364) 2012-03-07 11:17:11
#57 Hans Peter (hanspeter) 100 (48115) 2012-03-22 09:34:41
#58 Dusan (xxdradus) 100 (40134) 2012-04-06 10:04:27
#59 chris_3stones (3stones) 100 (34472) 2012-04-16 22:58:21
#60 George (Theofanidis) 100 (88988) 2012-04-16 23:00:54
#61 Uli Dulli (Uli Dulli) 100 (1408) 2012-05-07 22:00:26
#62 H. Lautenschlager (helmi) 100 (18162) 2012-05-27 18:28:42
#63 zuben c3 (zuben-c3) 100 (15014) 2012-06-15 15:16:02
#64 Daniel Richter (TheHiveMind) 100 (11147) 2012-06-15 20:50:28
#65 mmm (mmm) 100 (200) 2012-07-27 20:01:14
#66 KW (qwer*) 100 (13753) 2012-07-29 20:09:30
#67 Stepan (m1sterx) 100 (19165) 2012-08-03 12:18:17
#68 Em Doulgerakis (Greko) 100 (109970) 2012-09-07 18:13:55
#69 Thomas Lambert (lambert) 100 (38594) 2012-09-12 08:00:21
#70 Harry (Schwabenbambi) 100 (2409) 2012-09-19 14:01:45
#71 Martina (Nikita) 100 (3863) 2012-09-28 00:08:06
#72 Benny (Kingombo) 100 (3663) 2012-09-28 20:59:36
#73 Julia Werdelmann (jw) 100 (10407) 2012-12-19 12:19:49
#74 Jan (Yazoh) 100 (1000) 2013-01-02 15:06:47
#75 Thomas Hahn (4OsoCg31XYcO) 100 (1703) 2013-02-10 11:20:42
#76 Snake (snk) 100 (51689) 2013-02-19 13:27:21
#77 Hans Joachim Girulat (joregi) 100 (28462) 2013-03-27 22:27:21
#78 swarmspider (swarmspider) 100 (4425) 2013-04-19 17:58:00
#79 RPH (derichard) 100 (27044) 2013-04-19 17:58:26
#80 Bernhard Gruber (bgr) 100 (22631) 2013-04-23 21:56:12
#81 Bentz (Wolfgang19) 100 (2583) 2013-05-02 21:09:12
#82 Georgius Stolte (HazmatsFear) 100 (14247) 2013-05-11 15:45:52
#83 mk (bilbobeutlin) 100 (12340) 2013-05-19 21:11:00
#84 S.Hellmich (vanHellmich) 100 (400) 2013-06-03 17:48:57
#85 Luigi Tomelli (archstanton) 100 (95549) 2013-07-03 09:30:28
#86 Almut (problelmo) 100 (45992) 2013-07-22 22:39:23
#87 Philipp Hammer-Pohlau (phase2) 100 (17981) 2013-07-25 14:48:11
#88 zahir mohsen moradi (ariobarzan) 100 (99757) 2013-08-29 23:40:40
#89 E.T (Ertheb) 100 (54872) 2013-09-03 18:15:10
#90 Steve (Samacian) 100 (23704) 2013-09-05 04:51:42
#91 Sebastian Kluge (zappo) 100 (1801) 2013-09-09 16:08:07
#92 Alexander (cruachan) 100 (16051) 2013-09-25 02:56:39
#93 Gergely Simon (george314) 100 (16555) 2013-10-02 19:12:59
#94 Jim Gillogly (Scryer) 100 (21260) 2013-12-03 09:12:30
#95 cworstell (ace2) 100 (4870) 2013-12-17 01:37:27
#96 Alain (Integral) 100 (198642) 2013-12-20 19:05:16
#97 Bertold (bk) 100 (8972) 2013-12-30 14:55:37
#98 Kim H. S. (tenchijin) 100 (21386) 2014-01-15 14:03:41
#99 Pavel (haw) 100 (22728) 2014-01-16 12:49:44
#100 Marcel (bene1512) 100 (20896) 2014-02-08 13:58:53
#101 Karl Schutt (günter) 100 (34469) 2014-04-05 17:43:22
#102 Julia Bernotat (El Greco ) 100 (81129) 2014-07-02 19:55:55
#103 Murd0ck (Murd0ck) 100 (300) 2014-07-05 21:27:50
#104 julius gaius (julius) 100 (25581) 2014-07-21 12:31:57
#105 Hughes (hughes) 100 (4534) 2014-07-27 11:42:30
#106 Robert (rm) 100 (56012) 2014-07-31 22:22:56
#107 Peter Lustig (arsen) 100 (2838) 2014-09-03 12:03:00
#108 Dario (Besseghini) 100 (100) 2014-09-16 00:53:23
#109 Andreas Frerichs (Ossili) 100 (33026) 2014-10-25 00:23:02
#110 Francisco Moraes (fmoraes) 100 (90044) 2014-11-10 19:11:07
#111 Tim Fink (Magellan) 100 (3726) 2014-11-13 17:47:03
#112 HolgerK (HolgerK) 100 (23648) 2014-11-27 19:39:17
#113 Kai Ludwig (TalentRaspel) 100 (15704) 2015-01-05 19:23:17
#114 Urs Gysler (Sansibar) 100 (3164) 2015-02-06 21:59:05
#115 Rainer Zufall (kiekuk) 100 (42198) 2015-03-26 19:33:42
#116 Michael Ammon (Ammonym) 100 (7719) 2015-06-04 19:21:31
#117 Defekt75 (Defekt75) 100 (4325) 2015-06-23 17:47:02
#118 Frank (Zargh) 100 (100) 2015-07-09 15:40:05
#119 Mark van Heeswijk (markvh) 100 (2600) 2015-07-09 16:00:55
#120 Erik (Erox) 100 (20365) 2015-07-17 15:45:24
#121 Joerg G. (SnifferMaster) 100 (17225) 2015-10-11 20:06:54
#122 Szabó Zoltán (szabo.z87) 100 (47990) 2015-11-10 10:06:01
#123 S (Zyphe) 100 (8324) 2015-12-04 16:53:44
#124 Martin (martinbucher) 100 (22726) 2015-12-19 12:13:27
#125 Norbert Biermann (Norbert) 100 (40024) 2016-01-18 21:12:09
#126 Marc (rcll0891) 100 (17460) 2016-01-18 22:15:34
#127 Joerg Schaeffler (DrAcula) 100 (2948) 2016-02-08 21:37:15
#128 Alain Collignon (vexilla72) 100 (48599) 2016-03-16 18:30:04
#129 Dominik M. (Sgt. Pepper) 100 (39572) 2016-03-19 23:58:03
#130 Ines (bufo01) 100 (3612) 2016-03-29 22:17:51
#131 Peter (Garnet) 100 (14033) 2016-05-03 11:14:09
#132 Nicolas (nicosPavlov) 100 (70954) 2016-10-20 11:10:42
#133 Julian (Lemmynator) 100 (5931) 2016-12-10 00:12:08
#134 Michael (FoM) 100 (13778) 2016-12-14 01:38:24
#135 Meine Registrierung (TryC3) 100 (6045) 2016-12-27 17:08:37
#136 Mir Dim (mir0soft) 100 (44369) 2017-03-13 19:12:20
#137 chris (c2) 100 (51973) 2017-03-25 14:38:07
#138 Ruby Tuesday (rubytuesday) 100 (400) 2017-03-31 00:46:53
#139 Danny Higgins (hamster147) 100 (12962) 2017-04-27 11:51:55
#140 Daniel Walder (ibex) 100 (10686) 2017-04-27 22:28:04
You must be logged in to solve the challenge
Pages [1] 1 Show All  
 
 
powered by the CrypTool project  CrypTool

 

   +++    [01:44 - 29.04.2017] edrak1 solved the Level II challenge 'Cracking SHA1-Hashed Passwords'    +++    [01:37 - 29.04.2017] edrak1 solved the Level I challenge 'Number Sequence — Part 3'    +++    [01:15 - 29.04.2017] ibex solved the Level I challenge 'A Secret Message from Castle Mansfeld'    +++    [00:00 - 29.04.2017] ibex solved the Level I challenge 'Pigpen with a twist — Part 1'    +++    [17:02 - 28.04.2017] AnnaaLenaa solved the Level I challenge 'Letter to the Templars — Part 1'    +++